Location: Unspecified
(0.0000°N, 0.0000°E)
Time: 11:19:12
(UTC+00:00)

CHUBUSAT 2 - Visible Passes

Search period start: 25 February 2018 00:00
Search period end: 07 March 2018 00:00
Orbit: 557 x 576 km, 31.0° (Epoch: 25 February)

Date Brightness Start Highest point End Pass type
(mag) Time Alt. Az. Time Alt. Az. Time Alt. Az.
26 Feb ? 19:22:58 10° N 19:24:04 12° NNE 19:24:04 12° NNE visible
27 Feb ? 19:20:49 10° NNW 19:23:48 20° NNE 19:23:48 20° NNE visible
28 Feb ? 19:19:13 10° NNW 19:23:05 33° NNE 19:23:37 32° NE visible
01 Mar ? 19:17:55 10° NW 19:22:07 57° NNE 19:23:30 37° E visible
02 Mar ? 05:38:13 10° S 05:39:58 12° SSE 05:41:42 10° SE visible
02 Mar ? 19:16:52 10° WNW 19:21:08 82° SSW 19:23:24 27° SE visible
03 Mar ? 05:35:55 10° SSW 05:39:04 19° SSE 05:42:12 10° ESE visible
03 Mar ? 19:16:03 10° WNW 19:20:09 46° SSW 19:23:18 16° SE visible
04 Mar ? 05:34:16 10° SSW 05:38:08 31° SSE 05:41:58 10° E visible
04 Mar ? 19:15:31 10° W 19:19:12 28° SSW 19:22:53 10° SSE visible
05 Mar ? 05:32:55 10° SW 05:37:10 52° SSE 05:41:22 10° ENE visible
05 Mar ? 19:15:25 10° WSW 19:18:16 17° SSW 19:21:08 10° SSE visible
06 Mar ? 03:55:12 14° SE 03:55:12 14° SE 03:56:49 10° ESE visible
06 Mar ? 05:31:49 10° WSW 05:36:10 89° NNW 05:40:30 10° ENE visible
06 Mar ? 19:16:23 10° SW 19:17:23 11° SSW 19:18:23 10° SSW visible
